Tracking 18785 objects as of 26-July-2017
HD Live streaming from Space Station
objects crossing your sky now
MAYAK may become the brightest orbital object in the night sky!
Where is MAYAK now?
How to spot MAYAK

COSMOS 2209

Track COSMOS 2209 now!
COSMOS 2209 is classified as:


NORAD ID: 22112
Int'l Code: 1992-059A
Perigee: 35,751.2 km
Apogee: 35,843.2 km
Inclination: 15.0 °
Period: 1,436.3 minutes
Semi major axis: 42168 km
RCS: 5.0119 m2 (large)
Launch date: September 10, 1992
Source: Commonwealth of Independent States (former USSR) (CIS)
Launch site: TYURATAM MISSILE AND SPACE COMPLEX (TTMTR)
Your satellite tracking list
Your tracking list is empty





NASA's NSSDC Master Catalog

Two Line Element Set (TLE):
1 22112U 92059A   17207.21384992 -.00000229 +00000-0 +00000-0 0  9992
2 22112 015.0355 010.7892 0010901 232.2349 113.3625 01.00259443091045
Source of the keplerian elements: AFSPC